Probability
0 0 0 0 0 0 0 0 0 0 0 0 0 0 0 0 0 0 0 0 0 0 0 0 0 0 0 0 0 0 0 0 0 0 0 0 0 0 0 0 0 0 0 0
0 0 0 0 0 0 0 0 0 0 0 0 0 0 0 0 0 0 0 0 0 0 0 0 0 0 0 0 0 0 0 0 0 0 0 0 0 0 0 0 0 0 0 0
0 0 0 0 0 0 0 0 0 0 0 0 0 0 0 0 0 0 0 0 0 0 0 0 0 0 0 0 0 0 0 0 0 0 0 0 0 0 0 0 0 0 0 0
0 0 0 0 0 0 0 0 0 0 0 0 0 0 0 0 0 0 0 0 0 0 0 0 0 0 0 0 0 0 0 0 0 0 0 0 0 0 0 0 0 0 0 0
0 0 0 0 0 0 0 0 0 0 0 0 0 0 0 0 0 0 0 0 0 0 0 0 0 0 0 0 0 0 0 0 0 0 0 0 0 0 0 0 0 0 0 0
0 0 0 0 0 0 0 0 0 0 0 0 0 0 0 0 0 0 0 0 0 0 0 0 0 0 0 0 0 0 0 0 0 0 0 0 0 0 0 0 0 0 0 0
0 0 0 0 0 0 0 0 0 0 0 0 0 0 0 0 0 0 0 0 0 0 0 0 0 0 0 0 0 0 0 0 0 0 0 0 0 0 0 0 0 0 0 0
0 0 0 0 0 0 0 0 0 0 0 0 0 0 0 0 0 0 0 0 0 0 0 0 0 0 0 0 0 0 0 0 0 0 0 0 0 0 0 0 0 0 0 0
0 0 0 0 0 0 0 0 0 0 0 0 0 0 0 0 0 0 0 0 0 0 0 0 0 0 0 0 0 0 0 0 0 0 0 0 0 0 0 0 0 0 0 0
0 0 0 0 0 0 0 0 0 0 0 0 0 0 0 0 0 0 0 0 0 0 0 0 0 0 0 0 0 0 0 0 0 0 0 0 0 0 0 0 0 0 0 0
0 0 0 0 0 0 0 0 0 0 0 0 0 0 0 0 0 0 0 0 0 0 0 0 0 0 0 0 0 0 0 0 0 0 0 0 0 0 0 0 0 0 0 0
0 0 0 0 0 0 0 0 0 0 0 0 0 0 0 0 0 0 0 0 0 0 0 0 0 0 0 0 0 0 0 0 0 0 0 0 0 0 0 0 0 0 0 0
0 0 0 0 0 0 0 0 0 0 0 0 0 0 0 0 0 0 0 0 0 0 0 0 0 0 0 0 0 0 0 0 0 0 0 0 0 0 0 0 0 0 0 0
0 0 0 0 0 0 0 0 0 0 0 0 0 0 0 0 0 0 0 0 0 0 0 0 0 0 0 0 0 0 0 0 0 0 0 0 0 0 0 0 0 0 0 0
0 0 0 0 0 0 0 0 0 0 0 0 0 0 0 0 0 0 0 0 0 0 0 0 0 0 0 0 0 0 0 0 0 0 0 0 0 0 0 0 0 0 0 0
0 0 0 0 0 0 0 0 0 0 0 0 0 0 0 0 0 0 0 0 0 0 0 0 0 0 0 0 0 0 0 0 0 0 0 0 0 0 0 0 0 0 0 0
0 0 0 0 0 0 0 0 0 0 0 0 0 0 0 0 0 0 0 0 0 0 0 0 0 0 0 0 0 0 0 0 0 0 0 0 0 0 0 0 0 0 0 0
0 0 0 0 0 0 0 0 0 0 0 0 0 0 0 0 0 0 0 0 0 0 0 0 0 0 0 0 0 0 0 0 0 0 0 0 0 0 0 0 0 0 0 0
0 0 0 0 0 0 0 0 0 0 0 0 0 0 0 0 0 0 0 0 0 0 0 0 0 0 0 0 0 0 0 0 0 0 0 0 0 0 0 0 0 0 0 0
0 0 0 0 0 0 0 0 0 0 0 0 0 0 0 0 0 0 0 0 0 0 0 0 0 0 0 0 0 0 0 0 0 0 0 0 0 0 0 0 0 0 0 0
0 0 0 0 0 0 0 0 0 0 0 0 0 0 0 0 0 0 0 0 0 0 0 0 0 0 0 0 0 0 0 0 0 0 0 0 0 0 0 0 0 0 0 0
0 0 0 0 0 0 0 0 0 0 0 0 0 0 0 0 0 0 0 0 0 0 0 0 0 0 0 0 0 0 0 0 0 0 0 0 0 0 0 0 0 0 0 0
0 0 0 0 0 0 0 0 0 0 0 0 0 0 0 0 0 0 0 0 0 0 0 0 0 0 0 0 0 0 0 0 0 0 0 0 0 0 0 0 0 0 0 0
0 0 0 0 0 0 0 0 0 0 0 0 0 0 0 0 0 0 0 0 0 0 0 0 0 0 0 0 0 0 0 0 0 0 0 0 0 0 0 0 0 0 0 0
0 0 0 0 0 0 0 0 0 0 0 0 0 0 0 0 0 0 0 0 0 0 0 0 0 0 0 0 0 0 0 0 0 0 0 0 0 0 0 0 0 0 0 0
0 0 0 0 0 0 0 0 0 0 0 0 0 0 0 0 0 0 0 0 0 0 0 0 0 0 0 0 0 0 0 0 0 0 0 0 0 0 0 0 0 0 0 0
0 0 0 0 0 0 0 0 0 0 0 0 0 0 0 0 0 0 0 0 0 0 0 0 0 0 0 0 0 0 0 0 0 0 0 0 0 0 0 0 0 0 0 0
Wind_Speed
8 10 9 9 10 9 7 6 7 10 13 15 14 15 17 19 22 19 20 21 22 23 20 17 16 15 15 14 14 14 14 14 14 15 14 13 12 12 10 7 4 4 6 7
7 7 6 12 8 4 5 7 10 13 14 11 13 14 17 20 18 18 20 21 22 22 21 18 16 15 14 14 14 13 13 13 14 15 14 13 12 11 9 10 11 10 9 8
5 10 11 5 7 7 6 7 9 12 9 13 16 18 20 19 15 18 20 19 19 19 18 17 16 15 14 14 13 13 13 13 14 15 12 12 14 14 13 12 12 12 11 10
4 6 4 4 8 7 5 8 9 7 12 14 15 17 16 13 17 18 18 17 16 16 16 16 16 15 13 11 12 12 11 12 14 15 13 12 13 12 10 9 8 8 8 7
3 4 9 3 6 6 7 12 6 11 14 16 19 19 8 15 16 15 15 15 14 14 13 13 14 14 11 9 9 9 9 10 10 11 12 12 11 11 8 6 5 5 5 6
1 2 5 3 4 6 7 7 11 13 14 16 18 15 10 15 15 14 14 13 14 13 12 13 13 13 11 9 10 10 9 8 8 9 9 9 8 7 6 5 4 3 3 4
3 4 6 4 5 7 5 6 11 12 14 14 13 10 13 14 13 12 12 13 13 12 10 10 12 12 11 10 12 12 10 8 8 8 9 9 8 7 7 6 5 4 4 3
2 3 5 5 6 4 6 7 10 9 9 12 12 12 13 13 13 12 13 13 13 12 10 9 10 9 10 11 13 13 10 9 9 9 9 9 8 7 7 8 7 6 5 4
2 4 5 5 4 5 5 7 7 7 9 10 11 10 12 12 11 11 12 11 12 11 10 9 8 8 9 11 13 14 13 10 8 9 9 8 7 7 7 7 7 7 7 6
4 5 7 6 5 6 7 6 7 7 8 8 8 10 10 11 10 11 11 10 9 10 10 9 8 7 8 11 12 12 13 12 9 7 8 9 8 5 5 5 5 7 7 7
5 7 5 5 8 7 6 6 7 8 8 6 7 8 8 8 9 9 9 9 8 8 8 9 11 9 9 10 12 11 11 11 11 9 7 6 8 8 7 3 5 5 4 4
2 4 5 8 8 7 5 5 6 8 8 7 6 8 8 6 6 5 6 7 8 8 8 9 11 11 10 11 11 11 11 11 9 8 8 7 6 7 14 14 17 15 11 9
4 6 6 7 5 5 3 5 6 7 6 6 6 7 7 6 5 6 6 8 8 9 8 9 10 11 11 11 12 12 12 11 8 9 9 8 8 7 7 10 15 16 17 16
4 4 5 5 5 3 5 4 3 5 5 6 6 6 6 6 6 7 7 7 8 9 9 9 10 11 11 11 12 12 10 11 11 7 7 6 6 6 6 7 7 6 11 16
4 5 6 8 4 4 5 5 4 5 5 6 5 5 6 6 7 8 7 8 9 9 9 9 11 12 10 11 12 11 9 7 5 5 6 6 6 6 5 6 6 6 5 8
5 6 7 7 6 7 7 6 5 5 5 5 5 5 6 7 7 7 8 9 9 10 10 9 10 11 10 9 10 8 7 16 14 7 5 6 6 5 5 5 5 5 5 5
5 6 5 5 5 5 5 5 4 4 4 4 5 6 6 6 7 9 9 8 7 7 8 8 11 12 10 8 8 6 6 9 16 9 6 5 6 5 5 4 4 5 4 8
5 4 3 2 3 3 5 5 4 3 3 3 5 5 6 7 8 8 8 8 7 7 8 10 11 9 8 10 8 5 5 6 6 6 6 6 7 5 5 5 5 6 4 7
4 4 6 7 5 5 5 3 2 1 2 4 5 5 6 6 6 7 8 8 7 7 9 11 18 11 10 13 13 5 6 7 8 7 7 12 10 6 6 6 6 6 5 5
1 4 7 6 5 4 3 1 1 3 4 4 5 5 6 6 6 7 7 6 5 7 11 13 10 8 10 12 16 6 7 8 9 9 9 8 8 8 8 8 8 7 6 6
2 5 7 6 4 3 3 4 4 4 3 4 4 5 6 7 7 6 6 6 7 10 13 18 10 9 11 16 18 7 8 9 10 10 10 10 10 10 10 10 10 10 9 7
4 5 6 6 5 5 5 4 3 2 3 4 5 5 6 7 7 6 6 5 7 16 12 8 8 15 21 23 9 10 11 13 13 12 12 12 12 12 12 12 11 11 10 8
5 5 6 5 6 6 5 4 3 2 3 3 3 4 5 6 6 6 7 7 8 17 13 8 18 27 31 17 11 13 14 15 15 15 15 15 15 14 14 15 13 12 10 8
6 6 6 6 6 5 4 2 0 0 1 3 3 4 4 5 5 4 6 14 19 20 12 17 28 30 28 13 13 14 15 16 16 16 16 16 15 15 14 14 13 12 11 12
6 5 5 6 5 4 4 3 3 3 4 3 2 3 3 3 4 7 7 10 17 19 12 17 27 29 18 13 15 16 16 16 18 18 17 17 16 16 15 13 13 12 10 9
5 5 4 4 4 4 3 3 2 1 2 2 2 2 3 4 5 6 7 10 13 18 14 11 13 17 13 14 16 17 17 18 18 16 17 18 18 17 15 13 15 10 8 7
5 4 4 4 3 3 3 2 2 2 2 2 3 3 4 5 6 7 9 10 11 11 11 11 12 12 14 15 16 17 17 17 17 16 15 14 14 14 13 11 5 3 4 4
Wind_Direction
297 295 291 294 300 302 299 302 302 320 328 333 349 345 341 341 339 345 347 346 345 340 335 338 346 351 354 353 349 344 343 346 345 341 337 335 334 337 343 358 41 80 94 91
283 278 301 290 294 337 12 353 332 327 320 340 342 341 340 338 344 345 345 346 345 341 344 353 356 354 353 352 348 345 345 346 347 345 344 348 353 356 6 25 36 45 60 76
295 339 324 330 59 44 22 340 325 318 330 343 340 341 336 335 352 347 346 345 346 347 349 352 354 351 352 351 347 347 347 348 351 348 352 5 10 16 27 35 38 37 38 46
307 342 327 46 68 48 359 319 320 352 343 341 343 332 324 4 1 347 345 345 346 346 348 352 351 348 346 346 346 345 347 350 353 354 2 11 14 15 23 32 36 37 35 36
347 320 289 85 52 16 335 310 3 0 344 342 340 324 333 19 358 346 347 348 346 347 349 348 344 337 333 336 336 338 343 345 348 354 359 6 10 10 12 24 35 39 36 23
307 297 279 54 34 352 327 296 6 356 344 343 338 325 334 354 347 347 350 349 347 345 347 347 340 335 334 338 338 338 336 338 342 349 350 355 360 1 358 5 20 38 36 23
225 255 269 48 5 357 334 313 346 348 347 340 326 316 325 337 340 346 348 350 350 347 345 339 332 334 340 345 344 339 339 345 347 352 349 352 351 352 352 354 358 4 0 9
198 241 270 24 10 353 307 332 344 355 349 330 320 323 330 335 339 347 350 351 350 346 339 329 326 337 345 348 343 341 342 350 350 351 351 355 349 351 354 356 356 356 0 13
274 253 327 360 324 314 2 354 0 354 343 331 326 330 333 335 342 349 348 348 346 340 330 324 328 344 349 346 344 345 344 346 349 350 349 346 346 356 356 2 4 359 4 13
295 293 298 306 331 7 40 26 4 356 338 335 332 331 334 337 344 347 345 344 339 332 327 326 331 346 350 347 344 345 344 344 343 349 351 350 348 355 359 0 4 359 360 1
257 276 303 350 346 6 45 22 6 348 337 349 338 333 338 341 347 347 341 334 328 324 326 333 339 343 351 350 345 344 343 342 342 344 344 349 349 344 347 346 346 352 352 350
273 359 337 316 338 36 29 19 10 342 340 350 346 342 346 346 346 336 324 320 321 321 331 340 341 342 351 349 345 344 343 340 340 343 344 349 346 347 353 355 356 0 355 349
324 331 315 315 0 23 33 41 12 343 343 351 4 3 355 342 339 335 327 322 321 326 340 345 343 342 345 344 344 345 341 339 345 346 346 349 348 347 345 350 356 356 352 348
326 334 320 312 306 11 83 64 17 354 9 24 16 6 353 339 334 327 316 315 328 340 347 345 341 340 342 343 344 342 339 342 349 341 339 340 339 339 340 343 343 342 343 343
3 359 303 294 313 49 68 47 26 21 24 21 14 4 346 332 318 309 320 343 347 344 341 343 342 339 343 345 345 339 336 331 335 329 330 331 328 326 329 334 334 330 325 332
330 313 308 337 9 36 43 40 32 27 23 9 3 346 325 312 316 343 356 350 343 340 342 344 336 331 338 339 334 329 326 335 341 333 321 319 316 317 318 315 315 315 318 320
316 307 321 337 355 26 57 68 58 41 20 5 343 325 326 340 353 352 344 334 328 330 336 333 323 324 325 319 312 311 309 318 332 330 306 299 296 293 292 294 295 299 303 319
321 309 339 38 65 69 80 77 65 47 21 347 338 346 355 359 350 335 328 323 322 328 325 319 313 323 317 310 303 296 300 301 302 300 298 295 291 284 284 282 282 287 288 310
339 24 62 75 78 89 93 92 89 59 30 16 5 0 357 354 334 322 322 322 331 331 319 311 327 338 317 309 314 296 297 300 300 296 292 297 301 285 279 276 275 276 278 289
11 88 100 94 86 102 119 150 143 82 54 24 17 6 348 331 321 319 319 314 312 304 308 317 329 322 316 308 317 302 295 294 293 292 290 283 280 277 274 273 272 269 267 266
82 114 124 130 141 129 85 59 62 64 42 34 25 352 325 315 314 314 314 309 306 312 320 326 327 311 309 312 320 305 294 292 291 287 285 282 278 276 273 271 270 271 267 263
132 139 146 155 143 105 79 70 72 57 37 32 17 350 333 325 320 316 308 295 309 320 324 312 308 307 313 319 312 303 300 298 296 293 289 285 282 279 276 273 269 267 263 254
126 136 143 141 126 112 92 71 55 49 36 14 353 336 325 312 312 322 324 316 314 319 324 309 311 318 322 326 316 312 308 305 302 299 295 290 285 280 275 271 265 262 257 248
116 110 112 112 114 117 125 146 176 47 293 286 281 281 292 307 312 308 303 316 323 322 319 315 323 328 333 329 317 313 310 307 304 300 296 292 287 282 276 270 264 258 254 251
118 125 130 135 139 142 148 174 217 250 260 265 306 331 320 311 304 307 310 311 318 323 320 323 329 331 330 319 318 315 312 309 308 309 305 302 297 290 282 274 266 260 255 249
147 154 160 151 133 137 160 180 158 60 2 355 350 334 319 308 303 306 312 313 315 323 326 322 323 326 327 324 322 320 319 317 316 312 306 304 299 295 286 275 262 251 245 239
132 131 131 121 128 140 135 121 108 82 24 354 340 334 324 318 318 321 322 322 323 325 326 327 329 330 330 329 327 326 324 322 319 317 317 317 319 321 321 309 282 215 190 182